Time,TemperatureF,DewpointF,PressureIn,WindDirection,WindDirectionDegrees,WindSpeedMPH,WindSpeedGustMPH,Humidity,HourlyPrecipIn,Conditions,Clouds,dailyrainin,SoftwareType,DateUTC
2013-05-06 00:10:00,47.0,43.0,30.09,NNE,19,0.0,0.0,87,0.00,,,0.00,weatherlink.com 1.10,2013-05-06 05:10:00,
2013-05-06 00:25:00,47.0,43.0,30.09,NNE,19,0.0,0.0,87,0.00,,,0.00,weatherlink.com 1.10,2013-05-06 05:25:00,
2013-05-06 00:40:00,46.7,43.0,30.09,NNE,19,0.0,0.0,88,0.00,,,0.00,weatherlink.com 1.10,2013-05-06 05:40:00,
2013-05-06 00:55:00,46.5,43.0,30.09,NNE,19,0.0,0.0,88,0.00,,,0.00,weatherlink.com 1.10,2013-05-06 05:55:00,
2013-05-06 01:10:00,46.5,43.0,30.08,NNE,19,0.0,0.0,88,0.00,,,0.00,weatherlink.com 1.10,2013-05-06 06:10:00,
2013-05-06 01:25:00,46.2,43.0,30.08,NNE,19,0.0,0.0,87,0.00,,,0.00,weatherlink.com 1.10,2013-05-06 06:25:00,
2013-05-06 01:40:00,45.4,42.0,30.08,NNE,19,0.0,0.0,88,0.00,,,0.00,weatherlink.com 1.10,2013-05-06 06:40:00,
2013-05-06 01:55:00,44.9,42.0,30.08,NNE,19,0.0,0.0,88,0.00,,,0.00,weatherlink.com 1.10,2013-05-06 06:55:00,
2013-05-06 02:10:00,44.7,41.0,30.08,NNE,19,0.0,0.0,88,0.00,,,0.00,weatherlink.com 1.10,2013-05-06 07:10:00,
2013-05-06 02:25:00,44.6,42.0,30.07,NNE,19,0.0,0.0,89,0.00,,,0.00,weatherlink.com 1.10,2013-05-06 07:25:00,
2013-05-06 02:40:00,44.2,41.0,30.07,NNE,19,0.0,0.0,89,0.00,,,0.00,weatherlink.com 1.10,2013-05-06 07:40:00,
2013-05-06 02:55:00,44.2,41.0,30.07,NNE,19,0.0,0.0,89,0.00,,,0.00,weatherlink.com 1.10,2013-05-06 07:55:00,
2013-05-06 03:10:00,43.6,41.0,30.07,NNE,19,0.0,0.0,91,0.00,,,0.00,weatherlink.com 1.10,2013-05-06 08:10:00,
2013-05-06 03:25:00,43.3,41.0,30.07,NNE,19,0.0,0.0,91,0.00,,,0.00,weatherlink.com 1.10,2013-05-06 08:25:00,
2013-05-06 03:40:00,43.4,41.0,30.07,NNE,19,0.0,0.0,91,0.00,,,0.00,weatherlink.com 1.10,2013-05-06 08:40:00,
2013-05-06 03:55:00,43.4,41.0,30.07,NNE,19,0.0,0.0,92,0.00,,,0.00,weatherlink.com 1.10,2013-05-06 08:55:00,
2013-05-06 04:10:00,44.2,42.0,30.07,NNE,19,0.0,0.0,93,0.00,,,0.00,weatherlink.com 1.10,2013-05-06 09:10:00,
2013-05-06 04:25:00,44.3,42.0,30.07,NNE,19,0.0,0.0,92,0.00,,,0.00,weatherlink.com 1.10,2013-05-06 09:25:00,
2013-05-06 04:40:00,44.2,42.0,30.07,NNE,19,0.0,0.0,92,0.00,,,0.00,weatherlink.com 1.10,2013-05-06 09:40:00,
2013-05-06 04:55:00,43.6,42.0,30.07,NNE,19,0.0,0.0,92,0.00,,,0.00,weatherlink.com 1.10,2013-05-06 09:55:00,
2013-05-06 05:11:00,43.3,41.0,30.07,NNE,19,0.0,0.0,92,0.00,,,0.00,weatherlink.com 1.10,2013-05-06 10:11:00,
2013-05-06 05:25:00,43.1,41.0,30.07,NNE,19,0.0,0.0,92,0.00,,,0.00,weatherlink.com 1.10,2013-05-06 10:25:00,
2013-05-06 05:40:00,43.3,42.0,30.07,NNE,19,0.0,0.0,94,0.00,,,0.00,weatherlink.com 1.10,2013-05-06 10:40:00,
2013-05-06 05:55:00,43.4,42.0,30.08,NNE,19,0.0,0.0,94,0.00,,,0.00,weatherlink.com 1.10,2013-05-06 10:55:00,
2013-05-06 06:11:00,43.8,42.0,30.08,NNE,19,0.0,0.0,94,0.00,,,0.00,weatherlink.com 1.10,2013-05-06 11:11:00,
2013-05-06 06:26:00,44.4,43.0,30.08,NNE,19,0.0,0.0,95,0.00,,,0.00,weatherlink.com 1.10,2013-05-06 11:26:00,
2013-05-06 06:41:00,45.0,43.0,30.09,NNE,17,0.0,0.0,93,0.00,,,0.00,weatherlink.com 1.10,2013-05-06 11:41:00,
2013-05-06 06:56:00,44.8,43.0,30.09,NNE,17,0.0,0.0,93,0.00,,,0.00,weatherlink.com 1.10,2013-05-06 11:56:00,
2013-05-06 07:11:00,45.6,44.0,30.10,NNE,17,0.0,0.0,93,0.00,,,0.00,weatherlink.com 1.10,2013-05-06 12:11:00,
2013-05-06 07:26:00,46.3,44.0,30.10,NNE,17,0.0,0.0,92,0.00,,,0.00,weatherlink.com 1.10,2013-05-06 12:26:00,
2013-05-06 07:41:00,47.4,46.0,30.10,NNE,17,0.0,0.0,93,0.00,,,0.00,weatherlink.com 1.10,2013-05-06 12:41:00,
2013-05-06 07:56:00,49.8,48.0,30.11,North,360,0.0,0.0,93,0.00,,,0.00,weatherlink.com 1.10,2013-05-06 12:56:00,
2013-05-06 08:11:00,52.6,50.0,30.11,NW,325,0.0,0.0,90,0.00,,,0.00,weatherlink.com 1.10,2013-05-06 13:11:00,
2013-05-06 08:26:00,55.3,51.0,30.11,NW,317,0.0,0.0,84,0.00,,,0.00,weatherlink.com 1.10,2013-05-06 13:26:00,
2013-05-06 08:41:00,58.0,53.0,30.11,NW,317,0.0,0.0,82,0.00,,,0.00,weatherlink.com 1.10,2013-05-06 13:41:00,
2013-05-06 08:56:00,59.5,51.0,30.11,NW,315,3.0,4.0,74,0.00,,,0.00,weatherlink.com 1.10,2013-05-06 13:56:00,
2013-05-06 09:11:00,60.4,52.0,30.11,WNW,301,0.0,3.0,73,0.00,,,0.00,weatherlink.com 1.10,2013-05-06 14:11:00,
2013-05-06 09:26:00,61.7,51.0,30.11,North,11,0.0,8.0,68,0.00,,,0.00,weatherlink.com 1.10,2013-05-06 14:26:00,
2013-05-06 09:41:00,62.7,51.0,30.11,NNW,340,5.0,8.0,66,0.00,,,0.00,weatherlink.com 1.10,2013-05-06 14:41:00,
2013-05-06 09:56:00,63.1,51.0,30.11,NNW,336,5.0,8.0,66,0.00,,,0.00,weatherlink.com 1.10,2013-05-06 14:56:00,
2013-05-06 10:11:00,63.5,51.0,30.11,NE,38,5.0,12.0,64,0.00,,,0.00,weatherlink.com 1.10,2013-05-06 15:11:00,
2013-05-06 10:26:00,64.4,51.0,30.11,NNE,26,4.0,9.0,63,0.00,,,0.00,weatherlink.com 1.10,2013-05-06 15:26:00,
2013-05-06 10:41:00,64.5,51.0,30.11,NNE,30,3.0,11.0,61,0.00,,,0.00,weatherlink.com 1.10,2013-05-06 15:41:00,
2013-05-06 10:56:00,65.2,51.0,30.11,ENE,70,1.0,10.0,61,0.00,,,0.00,weatherlink.com 1.10,2013-05-06 15:56:00,
2013-05-06 11:11:00,66.1,52.0,30.11,ENE,59,2.0,8.0,60,0.00,,,0.00,weatherlink.com 1.10,2013-05-06 16:11:00,
2013-05-06 11:26:00,66.6,52.0,30.11,WNW,288,0.0,7.0,59,0.00,,,0.00,weatherlink.com 1.10,2013-05-06 16:26:00,
2013-05-06 11:41:00,66.9,51.0,30.10,West,281,0.0,11.0,58,0.00,,,0.00,weatherlink.com 1.10,2013-05-06 16:41:00,
2013-05-06 11:56:00,67.6,51.0,30.10,NE,52,2.0,8.0,56,0.00,,,0.00,weatherlink.com 1.10,2013-05-06 16:56:00,
2013-05-06 12:12:00,68.5,52.0,30.10,NE,35,3.0,8.0,56,0.00,,,0.00,weatherlink.com 1.10,2013-05-06 17:12:00,
2013-05-06 12:27:00,68.5,52.0,30.09,NNW,342,6.0,8.0,55,0.00,,,0.00,weatherlink.com 1.10,2013-05-06 17:27:00,
2013-05-06 12:42:00,68.8,52.0,30.09,NE,51,4.0,8.0,55,0.00,,,0.00,weatherlink.com 1.10,2013-05-06 17:42:00,
2013-05-06 12:57:00,69.6,52.0,30.08,North,351,10.0,10.0,54,0.00,,,0.00,weatherlink.com 1.10,2013-05-06 17:57:00,
2013-05-06 13:12:00,69.8,51.0,30.08,NW,304,2.0,8.0,52,0.00,,,0.00,weatherlink.com 1.10,2013-05-06 18:12:00,
2013-05-06 13:27:00,70.3,51.0,30.07,SW,232,0.0,5.0,51,0.00,,,0.00,weatherlink.com 1.10,2013-05-06 18:27:00,
2013-05-06 13:42:00,70.7,52.0,30.07,WNW,298,3.0,8.0,51,0.00,,,0.00,weatherlink.com 1.10,2013-05-06 18:42:00,
2013-05-06 13:57:00,71.3,52.0,30.06,NNE,29,2.0,8.0,50,0.00,,,0.00,weatherlink.com 1.10,2013-05-06 18:57:00,
2013-05-06 14:12:00,71.7,52.0,30.05,NE,34,3.0,7.0,50,0.00,,,0.00,weatherlink.com 1.10,2013-05-06 19:12:00,
2013-05-06 14:27:00,71.9,52.0,30.05,ENE,65,8.0,8.0,50,0.00,,,0.00,weatherlink.com 1.10,2013-05-06 19:27:00,
2013-05-06 14:42:00,72.2,51.0,30.04,NE,36,4.0,12.0,48,0.00,,,0.00,weatherlink.com 1.10,2013-05-06 19:42:00,
2013-05-06 14:57:00,72.6,51.0,30.03,ENE,71,9.0,10.0,47,0.00,,,0.00,weatherlink.com 1.10,2013-05-06 19:57:00,
2013-05-06 15:12:00,72.8,52.0,30.02,NE,53,7.0,8.0,49,0.00,,,0.00,weatherlink.com 1.10,2013-05-06 20:12:00,
2013-05-06 15:27:00,73.1,52.0,30.02,North,355,0.0,7.0,48,0.00,,,0.00,weatherlink.com 1.10,2013-05-06 20:27:00,
2013-05-06 15:42:00,73.7,52.0,30.01,North,355,2.0,10.0,46,0.00,,,0.00,weatherlink.com 1.10,2013-05-06 20:42:00,
2013-05-06 15:57:00,73.7,52.0,30.00,NNE,33,0.0,7.0,47,0.00,,,0.00,weatherlink.com 1.10,2013-05-06 20:57:00,
2013-05-06 16:12:00,74.6,52.0,29.99,WNW,291,4.0,11.0,45,0.00,,,0.00,weatherlink.com 1.10,2013-05-06 21:12:00,
2013-05-06 16:27:00,74.3,51.0,29.99,NE,50,4.0,10.0,44,0.00,,,0.00,weatherlink.com 1.10,2013-05-06 21:27:00,
2013-05-06 16:42:00,74.5,52.0,29.98,SE,131,0.0,8.0,45,0.00,,,0.00,weatherlink.com 1.10,2013-05-06 21:42:00,
2013-05-06 16:57:00,74.4,52.0,29.98,ENE,76,3.0,4.0,45,0.00,,,0.00,weatherlink.com 1.10,2013-05-06 21:57:00,
2013-05-06 17:12:00,74.5,52.0,29.98,ESE,104,2.0,7.0,45,0.00,,,0.00,weatherlink.com 1.10,2013-05-06 22:12:00,
2013-05-06 17:27:00,75.1,51.0,29.98,NNE,17,4.0,9.0,43,0.00,,,0.00,weatherlink.com 1.10,2013-05-06 22:27:00,
2013-05-06 17:42:00,75.2,50.0,29.98,NNW,346,0.0,8.0,41,0.00,,,0.00,weatherlink.com 1.10,2013-05-06 22:42:00,
2013-05-06 17:57:00,75.2,50.0,29.98,SSE,147,0.0,8.0,41,0.00,,,0.00,weatherlink.com 1.10,2013-05-06 22:57:00,
2013-05-06 18:12:00,75.1,51.0,29.98,ENE,61,5.0,7.0,43,0.00,,,0.00,weatherlink.com 1.10,2013-05-06 23:12:00,
2013-05-06 18:27:00,74.5,50.0,29.98,ENE,59,0.0,7.0,43,0.00,,,0.00,weatherlink.com 1.10,2013-05-06 23:27:00,
2013-05-06 18:42:00,75.1,51.0,29.98,NE,55,2.0,6.0,43,0.00,,,0.00,weatherlink.com 1.10,2013-05-06 23:42:00,
2013-05-06 18:57:00,74.3,52.0,29.98,NE,53,0.0,3.0,45,0.00,,,0.00,weatherlink.com 1.10,2013-05-06 23:57:00,
2013-05-06 19:12:00,74.2,51.0,29.98,NE,53,0.0,0.0,45,0.00,,,0.00,weatherlink.com 1.10,2013-05-07 00:12:00,
2013-05-06 19:27:00,73.8,52.0,29.98,NE,53,0.0,0.0,46,0.00,,,0.00,weatherlink.com 1.10,2013-05-07 00:27:00,
2013-05-06 19:42:00,72.9,51.0,29.98,NE,53,0.0,0.0,47,0.00,,,0.00,weatherlink.com 1.10,2013-05-07 00:42:00,
2013-05-06 19:57:00,72.4,51.0,29.98,NE,53,0.0,0.0,48,0.00,,,0.00,weatherlink.com 1.10,2013-05-07 00:57:00,
2013-05-06 20:12:00,71.3,52.0,29.99,NE,53,0.0,0.0,51,0.00,,,0.00,weatherlink.com 1.10,2013-05-07 01:12:00,
2013-05-06 20:27:00,70.6,52.0,29.99,NE,53,0.0,0.0,52,0.00,,,0.00,weatherlink.com 1.10,2013-05-07 01:27:00,
2013-05-06 20:42:00,69.7,52.0,29.99,NE,53,0.0,0.0,54,0.00,,,0.00,weatherlink.com 1.10,2013-05-07 01:42:00,
2013-05-06 20:57:00,68.8,51.0,29.99,NE,53,0.0,0.0,54,0.00,,,0.00,weatherlink.com 1.10,2013-05-07 01:57:00,
2013-05-06 21:12:00,67.7,52.0,29.99,NE,53,0.0,0.0,57,0.00,,,0.00,weatherlink.com 1.10,2013-05-07 02:12:00,
2013-05-06 21:27:00,67.2,52.0,30.00,NE,53,0.0,0.0,58,0.00,,,0.00,weatherlink.com 1.10,2013-05-07 02:27:00,
2013-05-06 21:42:00,66.8,52.0,30.00,NE,53,0.0,0.0,59,0.00,,,0.00,weatherlink.com 1.10,2013-05-07 02:42:00,
2013-05-06 21:57:00,65.8,52.0,30.00,NE,53,0.0,0.0,61,0.00,,,0.00,weatherlink.com 1.10,2013-05-07 02:57:00,
2013-05-06 22:12:00,64.9,52.0,30.00,NE,53,0.0,0.0,63,0.00,,,0.00,weatherlink.com 1.10,2013-05-07 03:12:00,
2013-05-06 22:27:00,64.7,52.0,30.00,NE,53,0.0,0.0,64,0.00,,,0.00,weatherlink.com 1.10,2013-05-07 03:27:00,
2013-05-06 22:42:00,64.4,52.0,30.01,NE,53,0.0,0.0,64,0.00,,,0.00,weatherlink.com 1.10,2013-05-07 03:42:00,
2013-05-06 22:57:00,63.8,52.0,30.01,NE,53,0.0,0.0,66,0.00,,,0.00,weatherlink.com 1.10,2013-05-07 03:57:00,
2013-05-06 23:12:00,63.1,52.0,30.02,ENE,61,0.0,0.0,68,0.00,,,0.00,weatherlink.com 1.10,2013-05-07 04:12:00,
2013-05-06 23:27:00,62.8,52.0,30.01,East,90,0.0,0.0,68,0.00,,,0.00,weatherlink.com 1.10,2013-05-07 04:27:00,
2013-05-06 23:42:00,62.4,52.0,30.01,East,90,0.0,0.0,69,0.00,,,0.00,weatherlink.com 1.10,2013-05-07 04:42:00,
2013-05-06 23:57:00,62.3,52.0,30.01,East,90,0.0,0.0,69,0.00,,,0.00,weatherlink.com 1.10,2013-05-07 04:57:00,